Regional Weather Roundup
Issued by NWS Charleston, SC

Current Version | Previous Version | Graphics & Text | Print | Product List | Glossary On
Versions: 1 2 3 4 5 6 7 8 9 10 11 12 13 14 15 16 17 18 19 20 21 22 23 24 25 26 27 28 29 30 31 32 33 34 35 36 37 38 39 40 41 42 43 44 45 46 47 48 49 50
000 ASUS42 KCHS 231025 RWRCHS REGIONAL WEATHER ROUNDUP NATIONAL WEATHER SERVICE CHARLESTON SC 600 AM EDT THU OCT 23 2014 NOTE: "FAIR" INDICATES FEW OR NO CLOUDS BELOW 12,000 FEET WITH NO SIGNIFICANT WEATHER AND/OR OBSTRUCTIONS TO VISIBILITY. NOT ALL STATIONS ARE QUALITY CONTROLLED BY THE NATIONAL WEATHER SERVICE. USE DATA WITH CAUTION...ESPECIALLY DEWPOINT OBSERVATIONS. SCZ027-030-031-034>040-042>050-231100- ...SOUTH CAROLINA... CITY SKY/WX TMP DP RH WIND PRES REMARKS N CHARLESTON CLEAR 46 41 82 N3 30.06R WATERFRONT PRK N/A 54 N/A N/A NW7 N/A FORT JOHNSON NOT AVBL JOHNS ISLAND SUNNY 45 43 93 CALM 30.07R PINOPOLIS NOT AVBL MONCKS CORNER FAIR 54 48 82 N5 30.06R SUMMERVILLE FAIR 43 43 100 CALM 30.08R BEAUFORT MCAS CLEAR 48 44 86 CALM 30.07R BEAUFORT ARPT FAIR 50 46 87 CALM 30.07R HILTON HEAD IS NOT AVBL GEORGETOWN NOT AVBL WALTERBORO SUNNY 43 N/A N/A CALM 30.08R ORANGEBURG CLEAR 44 40 85 N5 30.08R BARNWELL FAIR 43 41 93 CALM 30.08F AIKEN FAIR 39 39 100 CALM 30.12R MANNING FAIR 45 N/A N/A CALM 30.07R KINGSTREE NOT AVBL COLUMBIA CLEAR 42 38 85 S3 30.08R SUMTER CLEAR 45 41 86 NW8 30.06R FLORENCE CLEAR 46 40 79 NW5 30.04S MYRTLE BEACH CLEAR 48 41 76 NW6 30.03R N MYRTLE BEACH CLEAR 46 42 86 VRB5 30.02R $$ GAZ063-065-086>088-099>101-113>116-118-119-134-136>141-150-231100- ...GEORGIA... CITY SKY/WX TMP DP RH WIND PRES REMARKS SAVANNAH ARPT CLEAR 48 43 82 NW3 30.08R HUNTER AAF CLEAR 49 44 83 N5 30.05S FORT STEWART CLEAR 46 42 86 CALM 30.07R STATESBORO NOT AVBL SYLVANIA SUNNY 47 46 97 CALM 30.09S CLAXTON FAIR 41 41 100 CALM 30.09S THOMSON CLEAR 39 39 100 CALM 30.14S AUGUSTA-BUSH CLEAR 39 37 92 CALM 30.09S AUGUSTA-DANIEL CLEAR 48 40 73 NW7 30.10S SWAINSBORO FAIR 50 45 81 MISG 30.10R VIDALIA CLEAR 45 43 93 CALM 30.09S ALMA CLEAR 47 42 83 CALM 30.08R WAYCROSS CLEAR 48 46 92 CALM 30.08R JESUP FAIR 50 46 87 NE6 30.08R BRUNSWICK CLEAR 50 46 87 N3 30.08R SAINT SIMONS CLEAR 51 49 92 N8 30.06R $$ SCZ027-028-034-036>038-045-046-048>050-GAZ119-141-231100- ...LAKE AND SUPPLEMENTAL COASTAL OBSERVATIONS... STATION/POSITION TIME TEMP WIND PRES WAVE SWELL AIR SEA DIR/SP/G HT/PER HT/PER/DIR (UTC) (F) (DEG/KT/KT) (MB) (FT/S) (FT/S/D) UPR LAKE MARION NOT AVBL WINYAH BAY NOT AVBL LAKE MURRAY 0900 49 290/ 5/ 8 1017.9S ACE BASIN NERRS NOT AVBL FORT PULASKI 1000 55 360/ 8/ 10 1018.4R SAPELO ISLAND NOT AVBL $$ ANZ835-935-AMZ111-154-330-350-352-354-374-450-454-472-231100- ...C-MAN AND BUOY OBSERVATIONS... STATION/POSITION TIME TEMP WIND PRES WAVE SWELL AIR SEA DIR/SP/G HT/PER HT/PER/DIR (UTC) (F) (DEG/KT/KT) (MB) (FT/S) (FT/S/D) FOLLY BEACH CMAN 1000 54 340/ 9/ 12 1018.3R BUOY 41004 1000 64 78 360/ 12/ 16 1016.2R 4/ 6 2/10 BUOY 41008 1000 65 75 40/ 16/ 19 1017.1R 3/ 4 2/100/ 9 5E ST. MARYS GA 1000 76 N/A 3/ 4 FRYING PAN BUOY 1000 61 74 350/ 16/ 19 1015.6R 5/ 5 2/140/10 BUOY 41025 1000 58 310/ 23/ 29 1011.7R 6/ 6 CAPE LOOKOUT NC 1000 56 310/ 15/ 20 1014.0R BUOY 41002 0931 71 78 300/ 16/ 19 1013.1R 7/ 8 5/340/ 8 BUOY 41010 1000 73 81 30/ 10/ 14 1014.7R 5/ 7 3/340/ 7 BUOY 41012 NOT AVBL ST AUGUSTINE FL 1000 69 50/ 12/ 15 1016.6R CAPERS NEARSHORE NOT AVBL FRIPP NEARSHORE NOT AVBL $$

USA.gov is the U.S. government's official web portal to all federal, state and local government web resources and services.